When you browse on this site, cookies collect data to enhance your experience and personalize the content and advertising you see.
Visit our Privacy Policy to learn more. By continuing to use the site, you agree to this use of cookies and data.
  • In United Kingdom
  • List of Countries
  • For 7 days
  • Water Temperature
  • Satellite Maps
  • Weather Map
  • Weather Widgets
  • user-avatar
    Login

    Hourly Weather Aliabad

    Today, 24 March, Sunday

    Time Temperature Precipitation Wind Pressure Humidity
    00:00 +8°C° 0 mm 3 mps 737 mmHg 44%
    01:00 +7°C° 0 mm 3 mps 737 mmHg 44%
    02:00 +7°C° 0 mm 3 mps 737 mmHg 45%
    03:00 +7°C° 0 mm 3 mps 736 mmHg 42%
    04:00 +7°C° 0 mm 3 mps 736 mmHg 43%
    05:00 +7°C° 0 mm 3 mps 737 mmHg 44%
    06:00 +7°C° 0 mm 3 mps 737 mmHg 46%
    07:00 +9°C° 0 mm 2 mps 737 mmHg 44%
    08:00 +10°C° 0 mm 2 mps 737 mmHg 42%
    09:00 +13°C° 0 mm 2 mps 737 mmHg 41%
    10:00 +13°C° 0 mm 2 mps 737 mmHg 40%
    11:00 +14°C° 0 mm 2 mps 737 mmHg 40%
    12:00 +15°C° 0 mm 2 mps 737 mmHg 40%
    13:00 +15°C° 0 mm 2 mps 736 mmHg 40%
    14:00 +15°C° 0 mm 2 mps 736 mmHg 39%
    15:00 +15°C° 0 mm 1 mps 736 mmHg 38%
    16:00 +14°C° 0 mm 2 mps 736 mmHg 42%
    17:00 +13°C° 0 mm 2 mps 737 mmHg 45%
    18:00 +10°C° 0 mm 2 mps 737 mmHg 49%
    19:00 +10°C° 0.1 mm 2 mps 737 mmHg 50%
    20:00 +9°C° 0.1 mm 2 mps 738 mmHg 52%
    21:00 +9°C° 0.1 mm 3 mps 738 mmHg 53%
    22:00 +9°C° 0.1 mm 3 mps 738 mmHg 54%
    23:00 +9°C° 0.1 mm 3 mps 738 mmHg 55%

    Tomorrow, 25 March, Monday

    Time Temperature Precipitation Wind Pressure Humidity
    00:00 +8°C° 0.1 mm 3 mps 738 mmHg 57%
    01:00 +8°C° 0.1 mm 3 mps 738 mmHg 58%
    02:00 +8°C° 0.1 mm 2 mps 738 mmHg 60%
    03:00 +7°C° 0.1 mm 2 mps 739 mmHg 61%
    04:00 +7°C° 0 mm 2 mps 739 mmHg 61%
    05:00 +7°C° 0 mm 2 mps 739 mmHg 61%
    06:00 +6°C° 0 mm 2 mps 739 mmHg 61%
    07:00 +8°C° 0 mm 2 mps 739 mmHg 57%
    08:00 +9°C° 0 mm 2 mps 739 mmHg 53%
    09:00 +12°C° 0 mm 2 mps 739 mmHg 49%
    10:00 +12°C° 0 mm 2 mps 738 mmHg 49%
    11:00 +12°C° 0 mm 3 mps 738 mmHg 49%
    12:00 +13°C° 0 mm 3 mps 738 mmHg 48%
    13:00 +12°C° 0.1 mm 3 mps 738 mmHg 53%
    14:00 +12°C° 0.1 mm 3 mps 737 mmHg 57%
    15:00 +11°C° 0.1 mm 4 mps 737 mmHg 61%
    16:00 +10°C° 0.2 mm 4 mps 738 mmHg 69%
    17:00 +8°C° 0.2 mm 4 mps 738 mmHg 77%
    18:00 +7°C° 0.2 mm 3 mps 738 mmHg 84%
    19:00 +7°C° 0.2 mm 3 mps 739 mmHg 85%
    20:00 +6°C° 0.2 mm 2 mps 740 mmHg 85%
    21:00 +6°C° 0.2 mm 2 mps 740 mmHg 86%
    22:00 +6°C° 0.1 mm 2 mps 740 mmHg 86%
    23:00 +7°C° 0.1 mm 1 mps 740 mmHg 85%

    Day after tomorrow, 26 March, Tuesday

    Time Temperature Precipitation Wind Pressure Humidity
    00:00 +7°C° 0.1 mm 1 mps 740 mmHg 85%
    01:00 +7°C° 0 mm 1 mps 740 mmHg 85%
    02:00 +7°C° 0 mm 1 mps 740 mmHg 84%
    03:00 +6°C° 0 mm 0 mps 740 mmHg 84%
    04:00 +5°C° 0 mm 0 mps 740 mmHg 84%
    05:00 +6°C° 0 mm 1 mps 741 mmHg 85%
    06:00 +6°C° 0 mm 1 mps 741 mmHg 86%
    07:00 +7°C° 0 mm 1 mps 741 mmHg 82%
    08:00 +7°C° 0 mm 2 mps 741 mmHg 78%
    09:00 +8°C° 0 mm 2 mps 741 mmHg 73%
    10:00 +9°C° 0 mm 2 mps 741 mmHg 70%
    11:00 +10°C° 0 mm 3 mps 740 mmHg 67%
    12:00 +11°C° 0 mm 3 mps 740 mmHg 63%
    13:00 +12°C° 0 mm 3 mps 739 mmHg 61%
    14:00 +13°C° 0 mm 2 mps 739 mmHg 59%
    15:00 +14°C° 0 mm 2 mps 738 mmHg 57%
    16:00 +13°C° 0 mm 2 mps 739 mmHg 61%
    17:00 +12°C° 0 mm 2 mps 739 mmHg 66%
    18:00 +10°C° 0 mm 2 mps 739 mmHg 71%
    19:00 +9°C° 0 mm 2 mps 739 mmHg 74%
    20:00 +9°C° 0 mm 1 mps 739 mmHg 76%
    21:00 +8°C° 0 mm 0 mps 740 mmHg 79%
    22:00 +7°C° 0 mm 0 mps 739 mmHg 80%
    23:00 +7°C° 0 mm 0 mps 739 mmHg 81%

    27 March, Wednesday

    Time Temperature Precipitation Wind Pressure Humidity
    00:00 +7°C° 0 mm 0 mps 738 mmHg 82%
    01:00 +8°C° 0 mm 1 mps 738 mmHg 82%
    02:00 +8°C° 0 mm 1 mps 738 mmHg 81%
    03:00 +7°C° 0 mm 1 mps 737 mmHg 80%
    04:00 +7°C° 0 mm 1 mps 737 mmHg 80%
    05:00 +7°C° 0 mm 1 mps 737 mmHg 79%
    06:00 +7°C° 0 mm 1 mps 737 mmHg 78%
    07:00 +8°C° 0 mm 2 mps 737 mmHg 72%
    08:00 +10°C° 0 mm 2 mps 738 mmHg 66%
    09:00 +13°C° 0 mm 2 mps 738 mmHg 59%
    10:00 +14°C° 0 mm 3 mps 737 mmHg 55%
    11:00 +16°C° 0 mm 3 mps 737 mmHg 50%
    12:00 +17°C° 0 mm 3 mps 737 mmHg 46%
    13:00 +18°C° 0 mm 3 mps 737 mmHg 44%
    14:00 +18°C° 0 mm 2 mps 737 mmHg 42%
    15:00 +19°C° 0 mm 2 mps 736 mmHg 41%
    16:00 +17°C° 0 mm 2 mps 737 mmHg 45%
    17:00 +16°C° 0 mm 2 mps 737 mmHg 48%
    18:00 +15°C° 0 mm 1 mps 738 mmHg 52%
    19:00 +14°C° 0 mm 1 mps 738 mmHg 52%
    20:00 +13°C° 0 mm 2 mps 739 mmHg 52%
    21:00 +12°C° 0 mm 2 mps 740 mmHg 51%
    22:00 +10°C° 0 mm 2 mps 740 mmHg 51%
    23:00 +10°C° 0 mm 2 mps 740 mmHg 51%

    28 March, Thursday

    Time Temperature Precipitation Wind Pressure Humidity
    00:00 +9°C° 0 mm 2 mps 740 mmHg 51%
    01:00 +9°C° 0 mm 2 mps 740 mmHg 52%
    02:00 +8°C° 0 mm 2 mps 741 mmHg 53%
    03:00 +8°C° 0 mm 2 mps 741 mmHg 54%
    04:00 +8°C° 0 mm 2 mps 741 mmHg 53%
    05:00 +7°C° 0 mm 2 mps 742 mmHg 53%
    06:00 +7°C° 0 mm 2 mps 742 mmHg 52%
    07:00 +10°C° 0 mm 1 mps 742 mmHg 46%
    08:00 +12°C° 0 mm 1 mps 743 mmHg 41%
    09:00 +14°C° 0 mm 1 mps 743 mmHg 35%
    10:00 +14°C° 0.1 mm 1 mps 743 mmHg 36%
    11:00 +15°C° 0.1 mm 1 mps 743 mmHg 36%
    12:00 +15°C° 0.1 mm 1 mps 743 mmHg 37%
    13:00 +15°C° 0.1 mm 1 mps 743 mmHg 39%
    14:00 +14°C° 0.1 mm 1 mps 743 mmHg 42%
    15:00 +14°C° 0.1 mm 2 mps 743 mmHg 44%
    16:00 +13°C° 0.2 mm 1 mps 743 mmHg 51%
    17:00 +11°C° 0.2 mm 1 mps 744 mmHg 58%
    18:00 +10°C° 0.2 mm 1 mps 744 mmHg 65%
    19:00 +10°C° 0.4 mm 1 mps 745 mmHg 67%
    20:00 +9°C° 0.4 mm 1 mps 745 mmHg 69%
    21:00 +8°C° 0.4 mm 0 mps 746 mmHg 71%
    22:00 +8°C° 0.7 mm 1 mps 746 mmHg 73%
    23:00 +8°C° 0.7 mm 1 mps 746 mmHg 74%

    29 March, Friday

    Time Temperature Precipitation Wind Pressure Humidity
    00:00 +6°C° 0.7 mm 2 mps 746 mmHg 76%
    01:00 +6°C° 0.7 mm 2 mps 746 mmHg 78%
    02:00 +5°C° 0.7 mm 2 mps 746 mmHg 79%
    03:00 +5°C° 0.7 mm 2 mps 746 mmHg 80%
    04:00 +6°C° 0.6 mm 1 mps 746 mmHg 81%
    05:00 +6°C° 0.6 mm 1 mps 746 mmHg 82%
    06:00 +5°C° 0.6 mm 1 mps 747 mmHg 82%
    07:00 +5°C° 0.4 mm 2 mps 747 mmHg 80%
    08:00 +5°C° 0.4 mm 2 mps 747 mmHg 77%
    09:00 +6°C° 0.4 mm 2 mps 747 mmHg 74%
    10:00 +5°C° 0.3 mm 3 mps 746 mmHg 72%
    11:00 +7°C° 0.3 mm 3 mps 746 mmHg 71%
    12:00 +7°C° 0.3 mm 3 mps 745 mmHg 69%
    13:00 +8°C° 0.1 mm 3 mps 745 mmHg 67%
    14:00 +8°C° 0.1 mm 3 mps 744 mmHg 65%
    15:00 +8°C° 0.1 mm 2 mps 744 mmHg 63%
    16:00 +8°C° 0 mm 2 mps 744 mmHg 66%
    17:00 +8°C° 0 mm 1 mps 744 mmHg 70%
    18:00 +7°C° 0 mm 1 mps 744 mmHg 73%
    19:00 +6°C° 0 mm 1 mps 744 mmHg 72%
    20:00 +6°C° 0 mm 1 mps 744 mmHg 71%
    21:00 +5°C° 0 mm 1 mps 744 mmHg 70%
    22:00 +5°C° 0 mm 1 mps 744 mmHg 68%
    23:00 +5°C° 0 mm 1 mps 744 mmHg 66%
    Show more